Location: ???? ??????? ????
(31.2176°N, 31.6797°E)
Time: 18:22:57
(UTC+00:00)

H-2A R/B - Pass Details

Date: 29 October 2020
Orbit: 577 x 656 km, 98.5° (Epoch: 29 November)

Event Time Altitude Azimuth Distance (km) Brightness Sun altitude
Rises 15:27:03 0° 357° (N) 2,812 5.3 -5.0°
Reaches altitude 10° 15:29:30 10° 344° (NNW) 1,901 4.6 -5.5°
Maximum altitude 15:32:51 25° 289° (WNW) 1,187 4.4 -6.2°
Drops below altitude 10° 15:36:11 10° 234° (SW) 1,881 5.8 -6.9°
Sets 15:38:36 0° 221° (SW) 2,776 6.3 -7.4°
